sat.trackr.live / text

‹ back to catalog

STARLINK-31895

NORAD 59849 · 2024-097Q

PAYLOAD ACTIVE UNKNOWN

§ Identity

Operator
Country
US
Launch date
2024-05-23
Launch site
AFETR
Launch vehicle
Mass (kg)
RCS (m²)

Purposes: comms

External: N2YO · Heavens-Above · Gunter

§ Orbital elements

Epoch: 2026-09-21T05:32:25.293984Z

Period
94.27 min
Inclination
43.0032°
Eccentricity
0.0001571
Mean motion
15.27563324 rev/d
Perigee alt
482.0 km
Apogee alt
484.2 km
Semi-major
6,861.2 km
B*
5.2047e-6
RAAN
249.9357°
Arg perigee
268.6683°
Mean anomaly
91.3989°
Rev number
13,182

§ Raw data

STARLINK-318951 59849U 24097Q   26264.23084831 -.00000119  00000+0  52047-5 0  99902 59849  43.0032 249.9357 0001571 268.6683  91.3989 15.27563324131823

JSON: /api/v1/satellites/59849 · /tle

For live sub-satellite position, see the globe view (requires WebGL).

§ Visibility from observer

Set your observer location to see the next 7 days of passes ≥ 10°. The values pass through the URL so the page stays shareable.

No JS? Fill the form by hand. The geolocation button needs JavaScript.